Regional Weather Roundup
Issued by NWS Newport/Morehead, NC

Current Version | Previous Version | Graphics & Text | Print | Product List | Glossary Off
Versions: 1 2 3 4 5 6 7 8 9 10 11 12 13 14 15 16 17 18 19 20 21 22 23 24 25 26 27 28 29 30 31 32 33 34 35 36 37 38 39 40 41 42 43 44 45 46 47 48 49 50

000
ASUS42 KMHX 231125
RWRMHX
WEATHER ROUNDUP FOR EASTERN NORTH CAROLINA
NATIONAL WEATHER SERVICE NEWPORT/MOREHEAD CITY NC
700 AM EDT MON OCT 23 2017

NOTE: "FAIR" INDICATES FEW OR NO CLOUDS BELOW 12,000 FEET
WITH NO SIGNIFICANT WEATHER AND/OR OBSTRUCTIONS TO VISIBILITY

NCZ015>017-031-032-045>047-102-103-231200-
NORTH COAST

CITY           SKY/WX    TMP DP  RH WIND       PRES   REMARKS
EDENTON        CLOUDY    61  61  99 CALM      30.23S
ELIZABETH CITY CLOUDY    64  64 100 CALM      30.23S
KITTY HAWK     PTSUNNY   68  67  94 CALM      30.21F
MANTEO         CLOUDY   N/A N/A N/A SE3       30.23S

$$

NCZ045>047-081-094-103-104-231200-
CENTRAL COAST

CITY           SKY/WX    TMP DP  RH WIND       PRES   REMARKS
FRISCO         CLEAR     74  65  73 SE9       30.22S

$$

NCZ095-097-098-100-101-231200-
SOUTHERN COAST

CITY           SKY/WX    TMP DP  RH WIND       PRES   REMARKS
BEAUFORT       PTCLDY    66  62  87 E5        30.20F
CEDAR ISLAND   NOT AVBL
JACKSONVILLE   PTCLDY    62  62 100 CALM      30.18F
PINEY ISLAND     N/A    N/A N/A N/A S6        30.21S
WILMINGTON     CLOUDY    74  67  78 SE7       30.16S


$$

NCZ011>013-027>030-043-044-078>080-089-090>093-098-231200-
COASTAL PLAIN

CITY           SKY/WX    TMP DP  RH WIND       PRES   REMARKS
AHOSKIE        FOG       57  57 100 CALM      30.22F VSB 1/4
CLINTON        MOCLDY    67  64  91 CALM      30.17S
ELIZABETHTOWN  NOT AVBL
GOLDSBORO      CLOUDY    63  62  95 E5        30.17F FOG
GREENVILLE     PTCLDY    59  59 100 E3        30.21F FOG
HAVELOCK       CLEAR     60  59  96 CALM      30.21F
KENANSVILLE    CLOUDY    64  63  94 CALM      30.18S
KINSTON        PTCLDY    61  59  94 CALM      30.20F
NEW BERN       PTCLDY    59  59 100 CALM      30.21F
RICHLANDS      PTCLDY    59  59 100 E5        30.19F
ROCKY MOUNT    MOCLDY    58  58 100 CALM      30.19F
WASHINGTON     MOCLDY    57  56  97 CALM      30.21F
WHITEVILLE     LGT RAIN  69  69  97 CALM      30.15F

$$

AMZ130-135-150-152-154-156-158-170-250-252-270-ANZ085-086-088-633-658-670-231200-
MARINE OBSERVATIONS

STATION/POSITION TIME  TEMP    WIND        PRES    WAVE   SWELL
                       AIR SEA DIR/SP/G            HT/PER HT/PER
                 (UTC) (F)     (DEG/KT/KT) (MB)    (FT/S) (FT/S)
CHESAPEAKE LIGHT NOT AVBL
64 E VA BEACH    1050   71 69  160/  6/  6 1024.5    3/ 8   3/ 8
DUCK             1100   71 70  120/  8/  9 1023.1
2 E DUCK         1100      70                N/A     2/ 9
OREGON INLET     1100   69 72  110/  3/  4 1023.3
13E OREGON INLT  1048      73                N/A     3/ 9   2/ 9
HATTERAS CG      1100   76 73  150/  8/ 12 1023.2
DIAMOND BUOY     1050   77 81  130/ 12/ 16 1023.1    3/ 9   2/ 9
CAPE LOOKOUT     1100   74     140/  9/  9 1022.5
BEAUFORT LAB     1100   70 72  120/  4/  5 1022.7
30 SE NEW RVR IN 1108   77     160/ 14/ 19 1021.7
30 SE NEW RVR IN NOT AVBL
27 SE WRIGHTSVLE 1108   76 76  150/ 14/ 21 1021.5
5 SE WRIGHTSVLE  1108   75 74  150/ 14/ 19 1021.3
225 S CAPE HAT   1050   77 80  110/ 14/ 16 1022.3    4/ 8   3/ 8
41 SE CHARLESTON 1110   79 79  140/ 21/ 27 1018.9

$$




USA.gov is the U.S. government's official web portal to all federal, state and local government web resources and services.